Satellite: CO-66
Catalog number: 32791
Epoch time:      11173.62835270
Element set:    0012
Inclination:      097.8478 deg
RA of node:       237.2831 deg
Eccentricity:    0.0016479
Arg of perigee:   153.8346 deg
Mean anomaly:     206.3723 deg
Mean motion:   14.82145489 rev/day
Decay rate:       9.36e-06 rev/day^2
Epoch rev:           17031
Checksum:              318

Satellite: RS-30
Catalog number: 32953
Epoch time:      11173.94270571
Element set:    0842
Inclination:      082.5008 deg
RA of node:       159.1450 deg
Eccentricity:    0.0019752
Arg of perigee:   018.7297 deg
Mean anomaly:     341.4505 deg
Mean motion:   12.43013812 rev/day
Decay rate:        1.0e-07 rev/day^2
Epoch rev:           13980
Checksum:              273

Satellite: TACSAT-3
Catalog number: 35001
Epoch time:      11173.92362403
Element set:    0626
Inclination:      040.4529 deg
RA of node:       137.9046 deg
Eccentricity:    0.0023145
Arg of perigee:   255.9084 deg
Mean anomaly:     103.9161 deg
Mean motion:   15.49235746 rev/day
Decay rate:     1.2589e-04 rev/day^2
Epoch rev:           11797
Checksum:              295

Satellite: PHARMSAT
Catalog number: 35002
Epoch time:      11173.95681906
Element set:    0589
Inclination:      040.4674 deg
RA of node:       135.4880 deg
Eccentricity:    0.0025036
Arg of perigee:   262.2519 deg
Mean anomaly:     097.5458 deg
Mean motion:   15.48788478 rev/day
Decay rate:     1.0064e-04 rev/day^2
Epoch rev:           11800
Checksum:              312

Satellite: HAWKSAT1
Catalog number: 35003
Epoch time:      11172.87388259
Element set:    0662
Inclination:      040.4509 deg
RA of node:       112.3862 deg
Eccentricity:    0.0021804
Arg of perigee:   273.9470 deg
Mean anomaly:     085.8944 deg
Mean motion:   15.66342372 rev/day
Decay rate:     5.6169e-04 rev/day^2
Epoch rev:           11816
Checksum:              308

Satellite: CP6
Catalog number: 35004
Epoch time:      11173.95278614
Element set:    0662
Inclination:      040.4515 deg
RA of node:       096.4551 deg
Eccentricity:    0.0020801
Arg of perigee:   281.2094 deg
Mean anomaly:     078.6569 deg
Mean motion:   15.73991067 rev/day
Decay rate:    1.00286e-03 rev/day^2
Epoch rev:           11842
Checksum:              301

Satellite: METEOR-M
Catalog number: 35865
Epoch time:      11173.78103455
Element set:    0481
Inclination:      098.7057 deg
RA of node:       228.8375 deg
Eccentricity:    0.0003334
Arg of perigee:   026.8580 deg
Mean anomaly:     333.2769 deg
Mean motion:   14.21839883 rev/day
Decay rate:       1.76e-06 rev/day^2
Epoch rev:           09138
Checksum:              324

Satellite: RS-38
Catalog number: 35869
Epoch time:      11173.78042187
Element set:    0474
Inclination:      098.7018 deg
RA of node:       228.8720 deg
Eccentricity:    0.0005388
Arg of perigee:   022.9464 deg
Mean anomaly:     337.1925 deg
Mean motion:   14.22014678 rev/day
Decay rate:       1.77e-06 rev/day^2
Epoch rev:           09139
Checksum:              332

/EX


_______________________________________________
Via the Keps mailing list courtesy of AMSAT-NA
http://amsat.org/mailman/listinfo/keps

--- ViaMAIL!/WC v1.60d
 * Origin: Chowdanet (401-724-4410) telnet://chowdanet.com  (1:323/120)